• In Russia
  • List of Countries
  • For 7 days
  • Water Temperature
  • Weather Map
  • Weather Widgets
  • user-avatar
    Login

    Hourly Weather Mitu

    Today, 22 September, Sunday

    Time Temperature Precipitation Wind Pressure Humidity
    00:00 +22°C° 0.2 mm 0 mps 739 mmHg 97%
    01:00 +22°C° 0.2 mm 0 mps 739 mmHg 98%
    02:00 +22°C° 0.6 mm 0 mps 739 mmHg 98%
    03:00 +22°C° 0.6 mm 0 mps 739 mmHg 99%
    04:00 +21°C° 0.6 mm 0 mps 739 mmHg 99%
    05:00 +22°C° 0.1 mm 0 mps 739 mmHg 98%
    06:00 +22°C° 0.1 mm 0 mps 740 mmHg 98%
    07:00 +23°C° 0.1 mm 0 mps 740 mmHg 97%
    08:00 +27°C° 1 mm 1 mps 740 mmHg 92%
    09:00 +28°C° 1 mm 1 mps 740 mmHg 87%
    10:00 +30°C° 1 mm 1 mps 741 mmHg 83%
    11:00 +31°C° 1.2 mm 1 mps 740 mmHg 74%
    12:00 +32°C° 1.2 mm 1 mps 739 mmHg 65%
    13:00 +33°C° 1.2 mm 1 mps 739 mmHg 56%
    14:00 +33°C° 0.1 mm 1 mps 738 mmHg 58%
    15:00 +33°C° 0.1 mm 1 mps 738 mmHg 60%
    16:00 +32°C° 0.1 mm 1 mps 737 mmHg 62%
    17:00 +30°C° 0.2 mm 1 mps 737 mmHg 71%
    18:00 +28°C° 0.2 mm 1 mps 738 mmHg 81%
    19:00 +23°C° 0.2 mm 0 mps 738 mmHg 90%
    20:00 +23°C° 0 mm 0 mps 738 mmHg 91%
    21:00 +23°C° 0 mm 0 mps 739 mmHg 93%
    22:00 +22°C° 0 mm 0 mps 739 mmHg 94%
    23:00 +22°C° 0 mm 0 mps 739 mmHg 94%

    Tomorrow, 23 September, Monday

    Time Temperature Precipitation Wind Pressure Humidity
    00:00 +22°C° 0 mm 0 mps 739 mmHg 94%
    01:00 +22°C° 0 mm 0 mps 739 mmHg 95%
    02:00 +22°C° 0.2 mm 0 mps 739 mmHg 95%
    03:00 +21°C° 0.2 mm 0 mps 739 mmHg 96%
    04:00 +21°C° 0.2 mm 0 mps 739 mmHg 96%
    05:00 +22°C° 0 mm 0 mps 739 mmHg 94%
    06:00 +23°C° 0 mm 0 mps 740 mmHg 92%
    07:00 +24°C° 0 mm 0 mps 740 mmHg 90%
    08:00 +27°C° 0 mm 0 mps 740 mmHg 78%
    09:00 +29°C° 0 mm 0 mps 740 mmHg 65%
    10:00 +32°C° 0 mm 0 mps 740 mmHg 53%
    11:00 +33°C° 0 mm 0 mps 740 mmHg 48%
    12:00 +34°C° 0 mm 0 mps 739 mmHg 44%
    13:00 +37°C° 0 mm 1 mps 739 mmHg 39%
    14:00 +33°C° 3.6 mm 1 mps 738 mmHg 58%
    15:00 +29°C° 3.6 mm 2 mps 737 mmHg 77%
    16:00 +25°C° 3.6 mm 3 mps 737 mmHg 96%
    17:00 +24°C° 3.7 mm 2 mps 737 mmHg 96%
    18:00 +24°C° 3.7 mm 1 mps 738 mmHg 97%
    19:00 +23°C° 3.7 mm 1 mps 738 mmHg 97%
    20:00 +23°C° 0 mm 1 mps 738 mmHg 96%
    21:00 +23°C° 0 mm 1 mps 739 mmHg 96%
    22:00 +21°C° 0 mm 0 mps 739 mmHg 96%
    23:00 +21°C° 0 mm 0 mps 739 mmHg 96%

    Day after tomorrow, 24 September, Tuesday

    Time Temperature Precipitation Wind Pressure Humidity
    00:00 +21°C° 0 mm 0 mps 739 mmHg 96%
    01:00 +20°C° 0 mm 0 mps 739 mmHg 96%
    02:00 +20°C° 0 mm 0 mps 739 mmHg 96%
    03:00 +20°C° 0 mm 0 mps 739 mmHg 96%
    04:00 +20°C° 0 mm 0 mps 739 mmHg 96%
    05:00 +21°C° 0 mm 0 mps 740 mmHg 95%
    06:00 +22°C° 0 mm 0 mps 740 mmHg 93%
    07:00 +22°C° 0 mm 0 mps 741 mmHg 92%
    08:00 +25°C° 0 mm 0 mps 741 mmHg 80%
    09:00 +27°C° 0 mm 0 mps 741 mmHg 69%
    10:00 +29°C° 0 mm 0 mps 742 mmHg 58%
    11:00 +31°C° 0 mm 0 mps 741 mmHg 54%
    12:00 +34°C° 0 mm 1 mps 740 mmHg 51%
    13:00 +35°C° 0 mm 1 mps 739 mmHg 47%
    14:00 +33°C° 0.3 mm 1 mps 738 mmHg 56%
    15:00 +31°C° 0.3 mm 1 mps 738 mmHg 66%
    16:00 +29°C° 0.3 mm 1 mps 737 mmHg 75%
    17:00 +26°C° 0.3 mm 0 mps 738 mmHg 80%
    18:00 +25°C° 0.3 mm 0 mps 738 mmHg 85%
    19:00 +23°C° 0.3 mm 0 mps 738 mmHg 89%
    20:00 +23°C° 0.1 mm 0 mps 738 mmHg 90%
    21:00 +22°C° 0.1 mm 0 mps 739 mmHg 91%
    22:00 +22°C° 0.1 mm 0 mps 739 mmHg 92%
    23:00 +22°C° 0.2 mm 0 mps 739 mmHg 94%

    25 September, Wednesday

    Time Temperature Precipitation Wind Pressure Humidity
    00:00 +21°C° 0.2 mm 0 mps 739 mmHg 95%
    01:00 +21°C° 0.2 mm 0 mps 739 mmHg 97%
    02:00 +21°C° 0.1 mm 0 mps 739 mmHg 97%
    03:00 +21°C° 0.1 mm 0 mps 739 mmHg 97%
    04:00 +21°C° 0.1 mm 0 mps 739 mmHg 98%
    05:00 +21°C° 0 mm 0 mps 740 mmHg 97%
    06:00 +22°C° 0 mm 0 mps 740 mmHg 96%
    07:00 +23°C° 0 mm 0 mps 741 mmHg 95%
    08:00 +26°C° 0 mm 0 mps 741 mmHg 82%
    09:00 +29°C° 0 mm 0 mps 741 mmHg 69%
    10:00 +31°C° 0 mm 0 mps 741 mmHg 56%
    11:00 +34°C° 0.2 mm 1 mps 740 mmHg 53%
    12:00 +34°C° 0.2 mm 1 mps 739 mmHg 51%
    13:00 +35°C° 0.2 mm 1 mps 738 mmHg 48%
    14:00 +34°C° 0 mm 1 mps 738 mmHg 51%
    15:00 +34°C° 0 mm 1 mps 738 mmHg 54%
    16:00 +33°C° 0 mm 1 mps 738 mmHg 57%
    17:00 +31°C° 0.1 mm 1 mps 738 mmHg 65%
    18:00 +29°C° 0.1 mm 1 mps 738 mmHg 73%
    19:00 +27°C° 0.1 mm 1 mps 738 mmHg 81%
    20:00 +26°C° 0 mm 1 mps 738 mmHg 84%
    21:00 +25°C° 0 mm 1 mps 738 mmHg 87%
    22:00 +25°C° 0 mm 1 mps 739 mmHg 90%
    23:00 +25°C° 0 mm 1 mps 738 mmHg 90%

    26 September, Thursday

    Time Temperature Precipitation Wind Pressure Humidity
    00:00 +24°C° 0 mm 1 mps 738 mmHg 90%
    01:00 +24°C° 0 mm 1 mps 738 mmHg 90%
    02:00 +22°C° 0 mm 0 mps 738 mmHg 90%
    03:00 +22°C° 0 mm 0 mps 738 mmHg 91%
    04:00 +21°C° 0 mm 0 mps 738 mmHg 92%
    05:00 +22°C° 0 mm 0 mps 739 mmHg 89%
    06:00 +23°C° 0 mm 0 mps 740 mmHg 86%
    07:00 +24°C° 0 mm 0 mps 741 mmHg 83%
    08:00 +27°C° 0 mm 0 mps 741 mmHg 72%
    09:00 +30°C° 0 mm 0 mps 741 mmHg 61%
    10:00 +33°C° 0 mm 0 mps 741 mmHg 50%
    11:00 +34°C° 0 mm 0 mps 740 mmHg 46%
    12:00 +35°C° 0 mm 0 mps 739 mmHg 42%
    13:00 +36°C° 0 mm 0 mps 738 mmHg 38%
    14:00 +35°C° 0.2 mm 1 mps 737 mmHg 50%
    15:00 +32°C° 0.2 mm 1 mps 737 mmHg 63%
    16:00 +30°C° 0.2 mm 1 mps 736 mmHg 75%
    17:00 +28°C° 0.9 mm 1 mps 737 mmHg 81%
    18:00 +25°C° 0.9 mm 0 mps 737 mmHg 86%
    19:00 +23°C° 0.9 mm 0 mps 738 mmHg 92%
    20:00 +23°C° 0.5 mm 0 mps 738 mmHg 93%
    21:00 +23°C° 0.5 mm 0 mps 738 mmHg 94%
    22:00 +22°C° 0.5 mm 0 mps 739 mmHg 95%
    23:00 +22°C° 0.8 mm 0 mps 738 mmHg 96%

    27 September, Friday

    Time Temperature Precipitation Wind Pressure Humidity
    00:00 +22°C° 0.8 mm 0 mps 738 mmHg 97%
    01:00 +22°C° 0.8 mm 0 mps 738 mmHg 98%
    02:00 +22°C° 0.3 mm 0 mps 738 mmHg 98%
    03:00 +22°C° 0.3 mm 0 mps 738 mmHg 98%
    04:00 +21°C° 0.3 mm 0 mps 738 mmHg 98%
    05:00 +22°C° 0.1 mm 0 mps 739 mmHg 98%
    06:00 +23°C° 0.1 mm 0 mps 740 mmHg 97%
    07:00 +23°C° 0.1 mm 0 mps 740 mmHg 96%
    08:00 +24°C° 1 mm 0 mps 740 mmHg 93%
    09:00 +26°C° 1 mm 0 mps 740 mmHg 90%
    10:00 +27°C° 1 mm 0 mps 740 mmHg 88%
    11:00 +28°C° 1.3 mm 0 mps 740 mmHg 86%
    12:00 +28°C° 1.3 mm 0 mps 739 mmHg 84%
    13:00 +28°C° 1.3 mm 0 mps 738 mmHg 82%
    14:00 +28°C° 0.3 mm 0 mps 738 mmHg 79%
    15:00 +30°C° 0.3 mm 1 mps 738 mmHg 76%
    16:00 +30°C° 0.3 mm 1 mps 738 mmHg 73%
    17:00 +28°C° 0.2 mm 1 mps 738 mmHg 80%
    18:00 +27°C° 0.2 mm 1 mps 738 mmHg 86%
    19:00 +25°C° 0.2 mm 1 mps 738 mmHg 93%
    20:00 +25°C° 0 mm 1 mps 738 mmHg 94%
    21:00 +24°C° 0 mm 1 mps 739 mmHg 95%
    22:00 +24°C° 0 mm 1 mps 739 mmHg 97%
    23:00 +24°C° 0 mm 1 mps 739 mmHg 97%
    Show more